{"data":{"norad_id":49449,"epoch":"2026-09-19T18:41:31.953984Z","epoch_age_seconds":103533,"freshness":"FRESH","line1":"1 49449U 21104AT  26262.77884206  .00068967  00000+0  81904-3 0  9998","line2":"2 49449  53.2098 357.4246 0002788   1.0273 359.0747 15.60565808269071","mean_motion":15.60565808,"eccentricity":0.0002788,"inclination_deg":53.2098,"raan_deg":357.4246,"arg_perigee_deg":1.0273,"mean_anomaly_deg":359.0747,"bstar":0.00081904,"rev_number":26907,"period_min":92.274224683,"perigee_km":384.13577020244,"apogee_km":387.90746504763,"semimajor_km":6764.158617625,"source":"CELESTRAK","updated_at":"2026-09-20T09:00:39.400248Z"}}